• In Deutschland
  • Länderverzeichnis
  • Für 7 Tage
  • Wassertemperatur
  • Satellitenkarten
  • Wetterkarte
  • Widgets
  • user-avatar
    Anmelden

    Stündliche Wetter Taunusstein

    Heute, 23 Juni, Samstag

    Zeit Temperatur Niederschläge Wind Luftdruck Luftfeuchtigkeit
    00:00 +8°C° 0 mm 2 m/S 735 mmHg 86%
    01:00 +8°C° 0 mm 2 m/S 735 mmHg 88%
    02:00 +7°C° 0 mm 2 m/S 735 mmHg 89%
    03:00 +7°C° 0 mm 2 m/S 735 mmHg 90%
    04:00 +6°C° 0 mm 2 m/S 735 mmHg 91%
    05:00 +7°C° 0 mm 2 m/S 735 mmHg 87%
    06:00 +8°C° 0 mm 2 m/S 735 mmHg 83%
    07:00 +9°C° 0 mm 3 m/S 735 mmHg 80%
    08:00 +10°C° 0 mm 3 m/S 735 mmHg 75%
    09:00 +11°C° 0 mm 3 m/S 735 mmHg 70%
    10:00 +12°C° 0 mm 3 m/S 735 mmHg 65%
    11:00 +13°C° 0 mm 3 m/S 735 mmHg 64%
    12:00 +14°C° 0 mm 3 m/S 735 mmHg 62%
    13:00 +14°C° 0 mm 3 m/S 735 mmHg 61%
    14:00 +16°C° 0 mm 3 m/S 735 mmHg 59%
    15:00 +16°C° 0 mm 3 m/S 735 mmHg 58%
    16:00 +17°C° 0 mm 3 m/S 734 mmHg 57%
    17:00 +16°C° 0 mm 3 m/S 734 mmHg 59%
    18:00 +16°C° 0 mm 3 m/S 734 mmHg 62%
    19:00 +16°C° 0 mm 3 m/S 734 mmHg 65%
    20:00 +14°C° 0 mm 2 m/S 734 mmHg 70%
    21:00 +12°C° 0 mm 1 m/S 734 mmHg 76%
    22:00 +11°C° 0 mm 1 m/S 734 mmHg 82%
    23:00 +11°C° 0 mm 1 m/S 734 mmHg 83%

    Morgen, 24 Juni, Sonntag

    Zeit Temperatur Niederschläge Wind Luftdruck Luftfeuchtigkeit
    00:00 +11°C° 0 mm 1 m/S 734 mmHg 84%
    01:00 +11°C° 0 mm 1 m/S 734 mmHg 85%
    02:00 +10°C° 0 mm 0 m/S 733 mmHg 86%
    03:00 +10°C° 0 mm 0 m/S 733 mmHg 87%
    04:00 +10°C° 0 mm 0 m/S 733 mmHg 88%
    05:00 +10°C° 0 mm 0 m/S 733 mmHg 85%
    06:00 +12°C° 0 mm 1 m/S 733 mmHg 83%
    07:00 +13°C° 0 mm 1 m/S 733 mmHg 81%
    08:00 +14°C° 0,1 mm 1 m/S 733 mmHg 76%
    09:00 +16°C° 0,1 mm 1 m/S 733 mmHg 71%
    10:00 +17°C° 0,1 mm 2 m/S 733 mmHg 65%
    11:00 +18°C° 0,1 mm 2 m/S 733 mmHg 62%
    12:00 +18°C° 0,1 mm 2 m/S 733 mmHg 60%
    13:00 +19°C° 0,1 mm 2 m/S 733 mmHg 57%
    14:00 +19°C° 0 mm 2 m/S 733 mmHg 56%
    15:00 +19°C° 0 mm 2 m/S 733 mmHg 56%
    16:00 +19°C° 0 mm 2 m/S 732 mmHg 55%
    17:00 +19°C° 0 mm 2 m/S 732 mmHg 58%
    18:00 +18°C° 0 mm 2 m/S 732 mmHg 62%
    19:00 +17°C° 0 mm 2 m/S 732 mmHg 65%
    20:00 +16°C° 0 mm 2 m/S 732 mmHg 70%
    21:00 +15°C° 0 mm 2 m/S 733 mmHg 74%
    22:00 +14°C° 0 mm 2 m/S 733 mmHg 78%
    23:00 +13°C° 0 mm 2 m/S 733 mmHg 81%

    übermorgen, 25 Juni, Montag

    Zeit Temperatur Niederschläge Wind Luftdruck Luftfeuchtigkeit
    00:00 +13°C° 0 mm 1 m/S 733 mmHg 84%
    01:00 +12°C° 0 mm 1 m/S 733 mmHg 86%
    02:00 +12°C° 0 mm 1 m/S 733 mmHg 87%
    03:00 +12°C° 0 mm 1 m/S 733 mmHg 89%
    04:00 +12°C° 0 mm 1 m/S 733 mmHg 90%
    05:00 +13°C° 0,1 mm 1 m/S 733 mmHg 89%
    06:00 +13°C° 0,1 mm 2 m/S 733 mmHg 89%
    07:00 +14°C° 0,1 mm 2 m/S 733 mmHg 88%
    08:00 +15°C° 0 mm 2 m/S 733 mmHg 83%
    09:00 +16°C° 0 mm 2 m/S 734 mmHg 79%
    10:00 +16°C° 0 mm 2 m/S 734 mmHg 74%
    11:00 +18°C° 0 mm 2 m/S 734 mmHg 69%
    12:00 +19°C° 0 mm 2 m/S 734 mmHg 64%
    13:00 +20°C° 0 mm 2 m/S 734 mmHg 59%
    14:00 +20°C° 0 mm 2 m/S 734 mmHg 57%
    15:00 +21°C° 0 mm 2 m/S 734 mmHg 55%
    16:00 +21°C° 0 mm 2 m/S 734 mmHg 53%
    17:00 +21°C° 0 mm 2 m/S 734 mmHg 57%
    18:00 +20°C° 0 mm 2 m/S 734 mmHg 60%
    19:00 +20°C° 0 mm 2 m/S 734 mmHg 64%
    20:00 +19°C° 0 mm 1 m/S 734 mmHg 68%
    21:00 +18°C° 0 mm 1 m/S 734 mmHg 73%
    22:00 +15°C° 0 mm 1 m/S 734 mmHg 77%
    23:00 +15°C° 0 mm 1 m/S 734 mmHg 80%

    26 Juni, Dienstag

    Zeit Temperatur Niederschläge Wind Luftdruck Luftfeuchtigkeit
    00:00 +14°C° 0 mm 1 m/S 734 mmHg 82%
    01:00 +13°C° 0 mm 1 m/S 734 mmHg 85%
    02:00 +13°C° 0 mm 1 m/S 734 mmHg 86%
    03:00 +13°C° 0 mm 1 m/S 734 mmHg 88%
    04:00 +13°C° 0 mm 1 m/S 734 mmHg 90%
    05:00 +14°C° 0 mm 1 m/S 734 mmHg 88%
    06:00 +15°C° 0 mm 1 m/S 734 mmHg 85%
    07:00 +16°C° 0 mm 1 m/S 734 mmHg 83%
    08:00 +17°C° 0 mm 2 m/S 734 mmHg 78%
    09:00 +18°C° 0 mm 2 m/S 734 mmHg 73%
    10:00 +19°C° 0 mm 2 m/S 735 mmHg 69%
    11:00 +20°C° 0 mm 2 m/S 734 mmHg 65%
    12:00 +21°C° 0 mm 2 m/S 734 mmHg 61%
    13:00 +22°C° 0 mm 3 m/S 734 mmHg 58%
    14:00 +22°C° 0 mm 3 m/S 734 mmHg 57%
    15:00 +24°C° 0 mm 3 m/S 734 mmHg 55%
    16:00 +24°C° 0 mm 3 m/S 734 mmHg 54%
    17:00 +24°C° 0 mm 3 m/S 734 mmHg 58%
    18:00 +22°C° 0 mm 3 m/S 734 mmHg 63%
    19:00 +21°C° 0 mm 2 m/S 734 mmHg 67%
    20:00 +20°C° 0 mm 2 m/S 734 mmHg 73%
    21:00 +18°C° 0 mm 2 m/S 734 mmHg 78%
    22:00 +16°C° 0 mm 2 m/S 734 mmHg 84%
    23:00 +16°C° 0 mm 2 m/S 734 mmHg 85%

    27 Juni, Mittwoch

    Zeit Temperatur Niederschläge Wind Luftdruck Luftfeuchtigkeit
    00:00 +15°C° 0 mm 2 m/S 734 mmHg 87%
    01:00 +15°C° 0 mm 2 m/S 734 mmHg 89%
    02:00 +14°C° 0 mm 2 m/S 734 mmHg 90%
    03:00 +14°C° 0 mm 2 m/S 734 mmHg 90%
    04:00 +14°C° 0 mm 1 m/S 734 mmHg 91%
    05:00 +15°C° 0 mm 2 m/S 734 mmHg 87%
    06:00 +16°C° 0 mm 2 m/S 734 mmHg 83%
    07:00 +17°C° 0 mm 2 m/S 734 mmHg 79%
    08:00 +19°C° 0 mm 2 m/S 734 mmHg 70%
    09:00 +21°C° 0 mm 2 m/S 734 mmHg 62%
    10:00 +24°C° 0 mm 3 m/S 734 mmHg 54%
    11:00 +25°C° 0 mm 3 m/S 734 mmHg 51%
    12:00 +26°C° 0 mm 3 m/S 734 mmHg 48%
    13:00 +27°C° 0 mm 3 m/S 734 mmHg 44%
    14:00 +27°C° 0 mm 3 m/S 733 mmHg 44%
    15:00 +27°C° 0 mm 3 m/S 733 mmHg 45%
    16:00 +27°C° 0 mm 3 m/S 733 mmHg 45%
    17:00 +27°C° 0 mm 3 m/S 733 mmHg 50%
    18:00 +26°C° 0 mm 3 m/S 733 mmHg 55%
    19:00 +25°C° 0 mm 3 m/S 732 mmHg 60%
    20:00 +22°C° 0 mm 3 m/S 733 mmHg 64%
    21:00 +21°C° 0 mm 3 m/S 733 mmHg 68%
    22:00 +19°C° 0 mm 3 m/S 733 mmHg 72%
    23:00 +18°C° 0 mm 3 m/S 733 mmHg 73%

    28 Juni, Donnerstag

    Zeit Temperatur Niederschläge Wind Luftdruck Luftfeuchtigkeit
    00:00 +17°C° 0 mm 2 m/S 733 mmHg 74%
    01:00 +16°C° 0 mm 2 m/S 732 mmHg 75%
    02:00 +16°C° 0 mm 2 m/S 732 mmHg 76%
    03:00 +15°C° 0 mm 2 m/S 732 mmHg 76%
    04:00 +14°C° 0 mm 2 m/S 732 mmHg 77%
    05:00 +15°C° 0 mm 2 m/S 732 mmHg 74%
    06:00 +16°C° 0 mm 2 m/S 732 mmHg 70%
    07:00 +17°C° 0 mm 2 m/S 732 mmHg 67%
    08:00 +19°C° 0 mm 3 m/S 732 mmHg 61%
    09:00 +21°C° 0 mm 3 m/S 732 mmHg 56%
    10:00 +23°C° 0 mm 4 m/S 732 mmHg 51%
    11:00 +25°C° 0 mm 4 m/S 732 mmHg 49%
    12:00 +25°C° 0 mm 4 m/S 732 mmHg 47%
    13:00 +26°C° 0 mm 5 m/S 732 mmHg 45%
    14:00 +26°C° 0 mm 5 m/S 731 mmHg 45%
    15:00 +26°C° 0 mm 5 m/S 731 mmHg 46%
    16:00 +26°C° 0 mm 5 m/S 731 mmHg 46%
    17:00 +25°C° 0 mm 4 m/S 731 mmHg 50%
    18:00 +23°C° 0 mm 4 m/S 731 mmHg 55%
    19:00 +23°C° 0 mm 4 m/S 730 mmHg 59%
    20:00 +21°C° 0 mm 3 m/S 731 mmHg 63%
    21:00 +20°C° 0 mm 3 m/S 731 mmHg 67%
    22:00 +18°C° 0 mm 3 m/S 731 mmHg 71%
    23:00 +17°C° 0 mm 2 m/S 731 mmHg 74%
    Mehr zeigen